User: anonymous   Login
Location: Unspecified
(0.0000°N, 0.0000°E)
Time: 03:44:39
(UTC+01:00)
Language:

Cosmos 1300 - Orbit

View from above orbital plane
View from above orbital plane
View from above satellite
View from above satellite

Ground track
Ground track

The orbit data is extracted from the following two-line orbital elements,

1 12785U 81082A   14327.37131413  .00008107  00000-0  46499-3 0  8712
2 12785 082.5067 277.3737 0001371 123.7889 353.0310 15.12436773809976
Epoch (UTC): 23 November 2014 08:54:41
Eccentricity: 0.0001371
inclination: 82.5067°
perigee height: 528 km
apogee height: 530 km
right ascension of ascending node: 277.3737°
argument of perigee: 123.7889°
revolutions per day: 15.12436773
mean anomaly at epoch: 353.0310°
orbit number at epoch: 80997

The dashed part of the orbit path shows where the satellite is in the earth's shadow,  

DLR